Regional Weather Roundup
Issued by NWS Newport/Morehead, NC

Current Version | Previous Version | Text Only | Print | Product List | Glossary Off
Versions: 1 2 3 4 5 6 7 8 9 10 11 12 13 14 15 16 17 18 19 20 21 22 23 24 25 26 27 28 29 30 31 32 33 34 35 36 37 38 39 40 41 42 43 44 45 46 47 48 49 50
000 ASUS42 KMHX 281026 RWRMHX WEATHER ROUNDUP FOR EASTERN NORTH CAROLINA NATIONAL WEATHER SERVICE NEWPORT/MOREHEAD CITY NC 600 AM EDT FRI JUL 28 2017 NOTE: "FAIR" INDICATES FEW OR NO CLOUDS BELOW 12,000 FEET WITH NO SIGNIFICANT WEATHER AND/OR OBSTRUCTIONS TO VISIBILITY NCZ015>017-031-032-045>047-102-103-281100- NORTH COAST CITY SKY/WX TMP DP RH WIND PRES REMARKS EDENTON CLOUDY 79 74 84 SW6 29.88S ELIZABETH CITY HVY RAIN 74 74 100 NW10 29.89R FOG KITTY HAWK CLOUDY 78 71 78 CALM 29.86S MANTEO CLOUDY 78 73 82 SW14 29.87F $$ NCZ045>047-081-094-103-104-281100- CENTRAL COAST CITY SKY/WX TMP DP RH WIND PRES REMARKS FRISCO CLOUDY 80 76 87 SW9 29.89F $$ NCZ095-097-098-100-101-281100- SOUTHERN COAST CITY SKY/WX TMP DP RH WIND PRES REMARKS BEAUFORT CLOUDY 80 77 90 W9 29.90S CEDAR ISLAND NOT AVBL JACKSONVILLE PTCLDY 75 75 100 CALM 29.90S PINEY ISLAND MOSUNNY N/A N/A N/A SW8 29.90R WILMINGTON MOCLDY 77 75 93 SW3 29.91R $$ NCZ011>013-027>030-043-044-078>080-089-090>093-098-281100- COASTAL PLAIN CITY SKY/WX TMP DP RH WIND PRES REMARKS AHOSKIE HVY RAIN 74 73 94 CALM 29.86S CLINTON CLOUDY 73 73 100 CALM 29.90S ELIZABETHTOWN NOT AVBL GOLDSBORO MOCLDY 76 76 100 SW7 29.88 GREENVILLE CLOUDY 77 73 88 SW8 29.90S HAVELOCK CLOUDY 76 74 93 SW6 29.91S KENANSVILLE PTCLDY 73 72 94 CALM 29.90S FOG KINSTON CLOUDY 75 73 93 SW7 29.89F NEW BERN PTCLDY 75 75 100 SW6 29.91S RICHLANDS MOCLDY 73 73 100 S5 29.91S FOG ROCKY MOUNT CLOUDY 75 74 96 S7 29.87F WASHINGTON CLOUDY 76 73 90 SW8 29.89R WHITEVILLE CLOUDY 73 72 96 CALM 29.90S $$ AMZ130-135-150-152-154-156-158-170-250-252-270-ANZ085-086-088-633-658-670-281100- MARINE OBSERVATIONS STATION/POSITION TIME TEMP WIND PRES WAVE SWELL AIR SEA DIR/SP/G HT/PER HT/PER (UTC) (F) (DEG/KT/KT) (MB) (FT/S) (FT/S) CHESAPEAKE LIGHT NOT AVBL 64 E VA BEACH 0950 78 76 240/ 14/ 17 1011.4 4/ 5 2/ 8 DUCK 1000 79 63 230/ 18/ 23 1011.0 2 E DUCK 1000 68 N/A 2/ 9 OREGON INLET 1000 80 79 210/ 17/ 20 1011.5 13E OREGON INLT 0948 77 N/A 3/ 4 2/ 8 HATTERAS CG 1000 80 80 220/ 8/ 11 1012.2 DIAMOND BUOY 0950 82 83 210/ 16/ 17 1012.0 3/ 4 2/ 9 CAPE LOOKOUT 1000 79 250/ 9/ 12 1012.3 BEAUFORT LAB 1000 80 80 250/ 6/ 10 1012.0 30 SE NEW RVR IN 1008 81 83 250/ 14/ 17 1012.6 30 SE NEW RVR IN 1013 83 N/A 3/ 4 27 SE WRIGHTSVLE 1008 81 83 210/ 12/ 16 1012.5 5 SE WRIGHTSVLE 1008 80 81 250/ 12/ 16 1012.6 225 S CAPE HAT 0950 82 83 230/ 10/ 12 1014.1 2/ 7 2/ 7 41 SE CHARLESTON 1010 78 81 190/ 17/ 21 1012.3 $$

USA.gov is the U.S. government's official web portal to all federal, state and local government web resources and services.